Location: Bratislava
(48.1500°N, 17.1170°E)
Time: 01:29:24
(UTC+02:00)

Envisat - Pass Details

Date: 14 May 2026
Orbit: 761 x 763 km, 98.4° (Epoch: 7 June)

Event Time Altitude Azimuth Distance (km) Brightness Sun altitude
Rises 03:10:35 0° 18° (NNE) 3,236 7.7 -16.0°
Reaches altitude 10° 03:12:58 10° 23° (NNE) 2,305 6.8 -15.8°
Maximum altitude 03:17:55 52° 100° (E) 948 3.6 -15.3°
Enters shadow 03:22:18 13° 175° (S) 2,086 4.8 -14.9°
